[[{"header":{"parameterUnit":"m.s-1","parameterCategory":1,"la1":30.2991,"la2":30.254,"lo1":-89.0895,"lo2":-89.0444,"dy":0.0017,"dx":0.0017,"nx":28,"ny":28,"refTime":"2025-03-23T09:00:00:Z","depth":0,"parameterNumber":2,"parameterNumberName":"U-component_of_WINDS"},"data":[0,0,0,0,0,0,0,0,0,0,0,0,0,0,0,0,0,0,0,0,0,0,0,0,0,0,0,0,0,0,0,0,0,0,0,0,0,0,0,0,0,0,0,0,0,0,0,0,0,0,0,0,0,0,0,0,0,0,-0.9887,-0.9887,0,-0.9905,-0.9905,-0.9905,-0.9916,-0.9917,-0.9917,-0.9917,-0.9936,-0.9937,-0.9937,0,0,0,0,0,0,0,0,0,0,0,0,0,-0.9865,-0.9865,-0.9887,-0.9887,-0.9888,-0.9905,-0.9905,-0.9905,-0.9916,-0.9917,-0.9917,-0.9917,-0.9936,-0.9937,-0.9937,0,0,0,0,0,0,0,0,0,0,0,0,0,-0.9878,-0.9865,-0.9887,-0.9895,-0.9896,-0.9904,-0.9905,-0.9905,-0.9916,-0.9917,-0.9917,-0.9917,-0.9936,-0.9936,-0.9937,-0.9939,0,0,-0.9939,-0.994,0,0,0,0,0,0,0,0,-0.9877,-0.9878,-0.9894,-0.9895,-0.9896,-0.9908,-0.9904,-0.9917,-0.9916,-0.9909,-0.9917,-0.9917,-0.9927,-0.9928,-0.9931,-0.994,-0.9941,-0.9939,-0.994,-0.994,-0.994,0,0,0,0,0,0,0,-0.9876,-0.9878,-0.9894,-0.9894,-0.9895,-0.9898,-0.99,-0.9906,-0.9917,-0.9909,-0.991,-0.9912,-0.9928,-0.9931,-0.9932,-0.9941,-0.9939,-0.994,-0.994,-0.9941,-0.9952,-0.9952,0,0,0,0,0,0,-0.9874,-0.9877,-0.9894,-0.9895,-0.9886,-0.9899,-0.9901,-0.9904,-0.9917,-0.9919,-0.9912,-0.9913,-0.993,-0.9931,-0.9933,-0.9936,-0.994,-0.9941,-0.9941,-0.9952,-0.9952,-0.9952,0,0,0,0,0,0,-0.9873,-0.9875,-0.9893,-0.9886,-0.9888,-0.9899,-0.9903,-0.9905,-0.9908,-0.9919,-0.9921,-0.9913,-0.993,-0.9932,-0.9937,-0.9936,-0.9941,-0.9942,-0.9952,-0.9952,-0.9952,-0.9942,0,0,0,0,0,0,-0.9872,-0.9875,-0.9875,-0.9886,-0.9889,-0.9897,-0.9903,-0.9905,-0.9909,-0.991,-0.9921,-0.9923,-0.993,-0.9936,-0.9938,-0.9937,-0.9942,-0.9952,-0.9952,-0.9952,-0.9942,-0.9941,-0.994,0,0,0,0,0,-0.9872,-0.9872,-0.9875,-0.9877,-0.989,-0.9897,-0.9898,-0.9906,-0.9909,-0.991,-0.9917,-0.9922,-0.9936,-0.9937,-0.9939,-0.9938,-0.9952,-0.9952,-0.9952,-0.9942,-0.9941,-0.994,0,0,0,0,0,0,-0.9862,-0.9874,-0.9877,-0.9881,-0.9888,-0.9899,-0.99,-0.9905,-0.9911,-0.9912,-0.9922,-0.9924,-0.9929,-0.9934,-0.9934,-0.9941,-0.9945,-0.9945,-0.9937,-0.9936,-0.9935,-0.9934,-0.9943,0,0,0,0,0,-0.986,-0.9864,-0.9875,-0.9877,-0.988,-0.9889,-0.9893,-0.9898,-0.9905,-0.9908,-0.9916,-0.9923,-0.9929,-0.9933,-0.9939,-0.9943,-0.9945,-0.9944,-0.9943,-0.9942,-0.9942,-0.9944,-0.9943,-0.9951,-0.9951,-0.9951,0,0,-0.9857,-0.9864,-0.9866,-0.9875,-0.9881,-0.9885,-0.9892,-0.9896,-0.99,-0.9909,-0.9915,-0.992,-0.9929,-0.9934,-0.9936,-0.9938,-0.994,-0.9942,-0.9941,-0.9942,-0.9944,-0.9943,-0.9942,-0.9951,-0.9951,-0.9951,0,0,-0.9853,-0.9859,-0.9861,-0.9867,-0.9875,-0.9881,-0.9881,-0.9891,-0.9895,-0.99,-0.9908,-0.9912,-0.9922,-0.9928,-0.9932,-0.993,-0.9935,-0.9932,-0.9927,-0.9929,-0.9928,-0.9928,-0.9927,-0.9926,-0.9932,-0.9932,-0.9932,0,-0.9848,-0.9855,-0.9862,-0.9866,-0.987,-0.9878,-0.9881,-0.9886,-0.9896,-0.9898,-0.9901,-0.9913,-0.992,-0.9925,-0.9925,-0.9928,-0.9929,-0.993,-0.9928,-0.9927,-0.9927,-0.9926,-0.9926,-0.9931,-0.9931,-0.9931,-0.9931,0,-0.9848,-0.9852,-0.9853,-0.9862,-0.9866,-0.9869,-0.9878,-0.9881,-0.9886,-0.9891,-0.9897,-0.9905,-0.9912,-0.9914,-0.9919,-0.9921,-0.9922,-0.9926,-0.993,-0.9926,-0.9925,-0.9925,-0.993,-0.9931,-0.9931,-0.9931,0,0,-0.9839,-0.9851,-0.9851,-0.9855,-0.9864,-0.9868,-0.9872,-0.9879,-0.9881,-0.9888,-0.9891,-0.9899,-0.9902,-0.9907,-0.9913,-0.9915,-0.9912,-0.9919,-0.9919,-0.9917,-0.9914,-0.991,-0.991,-0.9916,-0.9916,-0.9916,-0.9913,0,-0.9836,-0.9843,-0.9849,-0.9854,-0.9858,-0.9865,-0.9868,-0.9874,-0.988,-0.9884,-0.989,-0.9896,-0.99,-0.9903,-0.9905,-0.9912,-0.9911,-0.9912,-0.9919,-0.9919,-0.9916,-0.991,-0.9906,-0.9904,-0.9913,-0.9913,-0.9913,0,-0.9835,-0.984,-0.9844,-0.9852,-0.9854,-0.9857,-0.9864,-0.9868,-0.9875,-0.9879,-0.9883,-0.9889,-0.9894,-0.9897,-0.9903,-0.9904,-0.9907,-0.9911,-0.9911,-0.9912,-0.9916,-0.991,-0.9903,-0.9902,-0.9912,-0.9912,-0.9912,0,-0.9827,-0.9836,-0.9839,-0.9842,-0.9852,-0.9854,-0.9858,-0.9865,-0.9869,-0.9874,-0.9877,-0.9883,-0.9887,-0.9892,-0.9899,-0.9901,-0.9905,-0.9909,-0.9908,-0.9908,-0.9909,-0.9909,-0.9901,-0.9911,-0.9911,-0.9911,-0.9911,0,-0.9824,-0.9826,-0.9836,-0.9838,-0.9841,-0.9849,-0.9851,-0.9856,-0.9862,-0.9866,-0.9873,-0.9876,-0.9886,-0.989,-0.9896,-0.99,-0.9902,-0.9905,-0.9907,-0.9905,-0.9904,-0.9907,-0.9907,-0.9911,-0.9911,-0.9911,-0.9911,0,-0.9817,-0.9823,-0.9827,-0.9836,-0.9838,-0.984,-0.9848,-0.985,-0.9856,-0.986,-0.9861,-0.987,-0.9876,-0.9883,-0.9892,-0.9896,-0.9899,-0.9901,-0.9896,-0.9897,-0.9895,-0.9895,-0.989,-0.989,-0.9899,-0.9899,-0.9899,0,-0.9814,-0.9816,-0.9824,-0.9827,-0.9831,-0.9835,-0.9838,-0.9846,-0.9849,-0.9857,-0.9858,-0.9864,-0.9869,-0.9877,-0.9885,-0.9891,-0.9894,-0.9891,-0.9895,-0.9892,-0.9893,-0.9893,-0.9893,-0.989,-0.989,-0.989,-0.989,0,-0.9809,-0.9812,-0.9816,-0.9821,-0.9825,-0.9829,-0.9834,-0.9836,-0.9845,-0.9848,-0.9853,-0.9857,-0.9865,-0.9871,-0.9877,-0.9882,-0.9888,-0.9889,-0.9889,-0.9887,-0.9884,-0.9885,-0.9894,-0.9889,-0.9889,-0.9889,-0.9889,-0.9889,-0.9804,-0.9805,-0.9811,-0.9816,-0.982,-0.9825,-0.9827,-0.9832,-0.9837,-0.9843,-0.9847,-0.9852,-0.9859,-0.9869,-0.9873,-0.9877,-0.988,-0.988,-0.988,-0.988,-0.9879,-0.9883,-0.9879,-0.9879,-0.9879,-0.9879,-0.9879,0,-0.9798,-0.9802,-0.9806,-0.9813,-0.9816,-0.982,-0.9826,-0.9828,-0.9832,-0.9838,-0.9843,-0.9848,-0.9854,-0.9861,-0.9867,-0.9869,-0.9871,-0.987,-0.987,-0.9871,-0.9877,-0.9876,-0.9868,-0.9868,-0.9868,-0.9868,-0.9868,-0.9868,-0.9796,-0.9799,-0.9803,-0.9808,-0.9812,-0.9817,-0.9819,-0.9823,-0.9828,-0.9834,-0.9838,-0.9842,-0.9849,-0.9855,-0.986,-0.9862,-0.9864,-0.9862,-0.9865,-0.987,-0.9871,-0.9872,-0.9871,-0.9862,-0.9862,-0.9859,-0.9859,-0.9859]},{"header":{"parameterUnit":"m.s-1","parameterCategory":1,"la1":30.2991,"la2":30.254,"lo1":-89.0895,"lo2":-89.0444,"dy":0.0017,"dx":0.0017,"nx":28,"ny":28,"refTime":"2025-03-23T09:00:00:Z","depth":0,"parameterNumber":3,"parameterNumberName":"V-component_of_WINDS"},"data":[0,0,0,0,0,0,0,0,0,0,0,0,0,0,0,0,0,0,0,0,0,0,0,0,0,0,0,0,0,0,0,0,0,0,0,0,0,0,0,0,0,0,0,0,0,0,0,0,0,0,0,0,0,0,0,0,0,0,4.46,4.4599,0,4.4546,4.4546,4.4545,4.4479,4.4478,4.4477,4.4476,4.4419,4.4419,4.4418,0,0,0,0,0,0,0,0,0,0,0,0,0,4.4645,4.4644,4.46,4.4599,4.4599,4.4546,4.4546,4.4545,4.4479,4.4478,4.4477,4.4475,4.4419,4.4419,4.4418,0,0,0,0,0,0,0,0,0,0,0,0,0,4.4612,4.4644,4.46,4.456,4.4555,4.4546,4.4546,4.4545,4.4479,4.4478,4.4476,4.4475,4.4419,4.4419,4.4418,4.4444,0,0,4.4415,4.4415,0,0,0,0,0,0,0,0,4.4614,4.461,4.4566,4.4562,4.4558,4.4518,4.454,4.4511,4.448,4.4508,4.4476,4.4474,4.4453,4.4449,4.4443,4.4441,4.4439,4.4415,4.4415,4.4414,4.4414,0,0,0,0,0,0,0,4.4616,4.4612,4.4579,4.4566,4.456,4.4544,4.4537,4.4535,4.449,4.4506,4.4501,4.4495,4.445,4.4444,4.4441,4.4438,4.4415,4.4415,4.4414,4.4414,4.4457,4.4459,0,0,0,0,0,0,4.4625,4.4614,4.458,4.4577,4.4582,4.4544,4.4537,4.4532,4.449,4.4482,4.4497,4.4492,4.4446,4.4442,4.4439,4.4467,4.4414,4.4414,4.4413,4.4455,4.4457,4.4459,0,0,0,0,0,0,4.4626,4.4622,4.4582,4.4594,4.4588,4.4545,4.454,4.4532,4.4525,4.4483,4.4475,4.4498,4.4444,4.444,4.4444,4.4464,4.4413,4.4412,4.4453,4.4456,4.4458,4.4525,0,0,0,0,0,0,4.4627,4.4623,4.4632,4.4595,4.4588,4.4589,4.4541,4.4532,4.4524,4.4518,4.4482,4.4475,4.4443,4.4445,4.4443,4.4462,4.4412,4.4451,4.4455,4.4457,4.4521,4.4529,4.4537,0,0,0,0,0,4.4629,4.4652,4.4633,4.4629,4.4599,4.459,4.4586,4.4549,4.4526,4.4535,4.4509,4.4476,4.4463,4.4446,4.4443,4.4463,4.445,4.4454,4.4457,4.4517,4.4528,4.4537,0,0,0,0,0,0,4.4692,4.4647,4.4625,4.4637,4.4618,4.4579,4.4589,4.4561,4.4548,4.4543,4.4497,4.449,4.45,4.4481,4.4464,4.4486,4.4451,4.4455,4.4498,4.4508,4.4516,4.452,4.4411,0,0,0,0,0,4.4708,4.4705,4.4665,4.468,4.4671,4.4632,4.4627,4.4601,4.4579,4.4571,4.4544,4.4524,4.4515,4.451,4.45,4.4518,4.451,4.453,4.4538,4.4545,4.4548,4.4558,4.4567,4.4471,4.4471,4.4471,0,0,4.4739,4.4714,4.4715,4.4692,4.4674,4.4672,4.4626,4.4625,4.4624,4.457,4.4573,4.4553,4.4527,4.4539,4.4542,4.4524,4.4573,4.4549,4.4555,4.4555,4.4562,4.4572,4.458,4.4474,4.4473,4.4473,0,0,4.4796,4.4777,4.4787,4.4771,4.4745,4.4719,4.4722,4.4688,4.4673,4.4675,4.4635,4.4632,4.4618,4.4602,4.4592,4.4646,4.4615,4.4643,4.4686,4.4696,4.4703,4.471,4.473,4.4737,4.4647,4.4647,4.4647,0,4.4839,4.4835,4.4796,4.4799,4.479,4.4743,4.4754,4.474,4.4712,4.4707,4.4687,4.4669,4.4648,4.4656,4.467,4.4663,4.4665,4.4647,4.4705,4.4711,4.4717,4.4735,4.4743,4.4651,4.465,4.465,4.465,0,4.4889,4.4887,4.4899,4.4874,4.4867,4.4874,4.4836,4.4833,4.4808,4.4785,4.4788,4.4762,4.4747,4.4746,4.4721,4.4751,4.4741,4.4714,4.4678,4.473,4.4747,4.4754,4.4656,4.4655,4.4654,4.4653,0,0,4.4983,4.4939,4.4944,4.4933,4.4902,4.4899,4.4905,4.489,4.4889,4.4872,4.4875,4.4866,4.4841,4.483,4.4802,4.4811,4.4857,4.4783,4.4781,4.4798,4.489,4.4911,4.492,4.4837,4.4838,4.4839,4.4892,0,4.5035,4.5042,4.5008,4.5024,4.5022,4.4978,4.4982,4.4964,4.4943,4.4938,4.4914,4.4908,4.4875,4.4869,4.4875,4.485,4.4875,4.4845,4.484,4.484,4.4848,4.4929,4.4951,4.5002,4.4899,4.49,4.49,0,4.5096,4.5084,4.51,4.5069,4.5067,4.5072,4.5057,4.5053,4.5032,4.5016,4.5005,4.4974,4.4977,4.4943,4.4947,4.4928,4.4924,4.4912,4.4913,4.4911,4.4874,4.493,4.5018,4.5026,4.491,4.4909,4.4909,0,4.5165,4.5152,4.516,4.5152,4.5116,4.5121,4.5107,4.5084,4.5078,4.5065,4.5061,4.5048,4.5041,4.5032,4.4999,4.4977,4.5008,4.497,4.4995,4.4996,4.5003,4.5003,4.5093,4.5,4.5,4.5,4.4999,0,4.5227,4.5238,4.5191,4.5196,4.5208,4.5169,4.5182,4.5163,4.5144,4.5145,4.5105,4.5107,4.5063,4.506,4.5034,4.5042,4.5039,4.5026,4.5019,4.503,4.5032,4.5027,4.5023,4.5002,4.5001,4.5001,4.5,0,4.5305,4.5274,4.528,4.5247,4.5239,4.5249,4.5221,4.5224,4.5201,4.5203,4.5201,4.5164,4.5159,4.5125,4.5111,4.5094,4.5112,4.5097,4.512,4.5115,4.5142,4.5141,4.5232,4.5242,4.5142,4.5143,4.5144,0,4.5347,4.5355,4.5324,4.5322,4.5309,4.5307,4.5301,4.5264,4.5259,4.5237,4.5244,4.5235,4.5226,4.522,4.5192,4.5182,4.5167,4.52,4.5165,4.5177,4.5169,4.5169,4.517,4.5207,4.5209,4.521,4.5211,0,4.5425,4.541,4.5403,4.5392,4.5387,4.5376,4.5363,4.5364,4.5322,4.532,4.5314,4.5308,4.5295,4.5287,4.5273,4.5257,4.5228,4.5222,4.5227,4.5239,4.5252,4.5246,4.5141,4.522,4.5219,4.5218,4.5218,4.5217,4.5487,4.5493,4.5472,4.5467,4.5453,4.5442,4.5445,4.5423,4.5417,4.5405,4.5383,4.5381,4.5361,4.5338,4.5326,4.5324,4.5306,4.5314,4.5316,4.5318,4.5325,4.5252,4.5321,4.532,4.532,4.532,4.532,0,4.5564,4.5549,4.5545,4.5528,4.5524,4.5497,4.5482,4.548,4.5479,4.5463,4.5456,4.5451,4.5444,4.5416,4.5406,4.541,4.5397,4.5409,4.5409,4.5406,4.534,4.5337,4.542,4.542,4.542,4.542,4.542,4.542,4.5604,4.5613,4.5596,4.5598,4.5582,4.5581,4.5574,4.5564,4.5552,4.5548,4.5542,4.5524,4.5504,4.5493,4.5485,4.5477,4.5476,4.5493,4.5481,4.542,4.541,4.5401,4.5398,4.5493,4.5493,4.5547,4.5548,4.5548]}]]